Time,TemperatureF,DewpointF,PressureIn,WindDirection,WindDirectionDegrees,WindSpeedMPH,WindSpeedGustMPH,Humidity,HourlyPrecipIn,Conditions,Clouds,dailyrainin,SoftwareType,DateUTC
2013-12-05 00:04:00,59.2,56.3,29.65,SSW,202,2.7,-999.0,90,-99.99,,,0.00,Acu-Link.com,2013-12-05 05:04:00,
2013-12-05 00:20:00,59.4,56.5,29.66,SSW,202,3.2,-999.0,90,-99.99,,,0.00,Acu-Link.com,2013-12-05 05:20:00,
2013-12-05 00:35:00,59.2,56.3,29.65,SSW,202,3.2,-999.0,90,-99.99,,,0.00,Acu-Link.com,2013-12-05 05:35:00,
2013-12-05 00:50:00,59.2,56.3,29.66,SW,225,2.7,-999.0,90,-99.99,,,0.00,Acu-Link.com,2013-12-05 05:50:00,
2013-12-05 01:05:00,59.5,56.6,29.66,SW,225,3.7,-999.0,90,-99.99,,,0.00,Acu-Link.com,2013-12-05 06:05:00,
2013-12-05 01:20:00,60.3,57.4,29.66,WSW,247,6.3,-999.0,90,-99.99,,,0.00,Acu-Link.com,2013-12-05 06:20:00,
2013-12-05 01:35:00,61.2,57.9,29.66,WSW,247,4.7,-999.0,89,-99.99,,,0.00,Acu-Link.com,2013-12-05 06:35:00,
2013-12-05 01:51:00,61.9,58.3,29.67,SW,225,5.3,-999.0,88,-99.99,,,0.00,Acu-Link.com,2013-12-05 06:51:00,
2013-12-05 02:06:00,62.2,58.0,29.67,WSW,247,8.9,-999.0,86,-99.99,,,0.00,Acu-Link.com,2013-12-05 07:06:00,
2013-12-05 02:21:00,62.4,57.8,29.68,SW,225,11.4,-999.0,85,-99.99,,,0.00,Acu-Link.com,2013-12-05 07:21:00,
2013-12-05 02:36:00,56.5,51.4,29.70,WNW,292,8.3,-999.0,83,-99.99,,,0.00,Acu-Link.com,2013-12-05 07:36:00,
2013-12-05 02:52:00,54.0,49.3,29.71,NW,315,7.8,-999.0,84,-99.99,,,0.00,Acu-Link.com,2013-12-05 07:52:00,
2013-12-05 03:07:00,53.2,48.8,29.72,WNW,292,4.7,-999.0,85,-99.99,,,0.00,Acu-Link.com,2013-12-05 08:07:00,
2013-12-05 03:22:00,52.7,48.6,29.72,WNW,292,3.7,-999.0,86,-99.99,,,0.00,Acu-Link.com,2013-12-05 08:22:00,
2013-12-05 03:37:00,52.2,48.4,29.72,NW,315,3.7,-999.0,87,-99.99,,,0.00,Acu-Link.com,2013-12-05 08:37:00,
2013-12-05 03:53:00,51.3,47.9,29.73,WNW,292,4.7,-999.0,88,-99.99,,,0.00,Acu-Link.com,2013-12-05 08:53:00,
2013-12-05 04:11:00,50.7,47.3,29.73,WNW,292,4.2,-999.0,88,-99.99,,,0.00,Acu-Link.com,2013-12-05 09:11:00,
2013-12-05 04:29:00,50.7,47.3,29.73,WNW,292,6.3,-999.0,88,-99.99,,,0.00,Acu-Link.com,2013-12-05 09:29:00,
2013-12-05 04:45:00,50.0,46.6,29.73,WNW,292,4.7,-999.0,88,-99.99,,,0.00,Acu-Link.com,2013-12-05 09:45:00,
2013-12-05 05:01:00,48.7,45.0,29.74,WNW,292,4.7,-999.0,87,-99.99,,,0.00,Acu-Link.com,2013-12-05 10:01:00,
2013-12-05 05:21:00,48.0,44.3,29.74,WNW,292,3.7,-999.0,87,-99.99,,,0.00,Acu-Link.com,2013-12-05 10:21:00,
2013-12-05 05:36:00,47.8,44.1,29.74,West,270,3.7,-999.0,87,-99.99,,,0.00,Acu-Link.com,2013-12-05 10:36:00,
2013-12-05 05:57:00,47.1,42.8,29.75,West,270,4.7,-999.0,85,-99.99,,,0.00,Acu-Link.com,2013-12-05 10:57:00,
2013-12-05 06:12:00,46.6,41.4,29.79,NW,315,6.3,-999.0,82,-99.99,,,0.00,Acu-Link.com,2013-12-05 11:12:00,
2013-12-05 06:27:00,45.7,40.8,29.81,WNW,292,7.3,-999.0,83,-99.99,,,0.00,Acu-Link.com,2013-12-05 11:27:00,
2013-12-05 06:42:00,44.8,40.3,29.82,WNW,292,5.8,-999.0,84,-99.99,,,0.00,Acu-Link.com,2013-12-05 11:42:00,
2013-12-05 06:57:00,44.1,39.6,29.82,NNW,337,6.8,-999.0,84,-99.99,,,0.00,Acu-Link.com,2013-12-05 11:57:00,
2013-12-05 07:12:00,43.5,39.3,29.83,West,270,6.8,-999.0,85,-99.99,,,0.00,Acu-Link.com,2013-12-05 12:12:00,
2013-12-05 07:27:00,43.0,38.8,29.84,WNW,292,4.7,-999.0,85,-99.99,,,0.00,Acu-Link.com,2013-12-05 12:27:00,
2013-12-05 07:43:00,42.3,37.8,29.84,NW,315,5.8,-999.0,84,-99.99,,,0.00,Acu-Link.com,2013-12-05 12:43:00,
2013-12-05 07:58:00,41.7,37.5,29.86,WNW,292,5.8,-999.0,85,-99.99,,,0.00,Acu-Link.com,2013-12-05 12:58:00,
2013-12-05 08:13:00,41.4,37.5,29.85,NNW,337,3.7,-999.0,86,-99.99,,,0.00,Acu-Link.com,2013-12-05 13:13:00,
2013-12-05 08:28:00,41.2,37.3,29.85,NW,315,5.8,-999.0,86,-99.99,,,0.00,Acu-Link.com,2013-12-05 13:28:00,
2013-12-05 08:43:00,41.0,36.8,29.86,NW,315,4.7,-999.0,85,-99.99,,,0.00,Acu-Link.com,2013-12-05 13:43:00,
2013-12-05 08:58:00,40.6,36.7,29.88,WNW,292,4.7,-999.0,86,-99.99,,,0.00,Acu-Link.com,2013-12-05 13:58:00,
2013-12-05 09:13:00,39.9,35.5,29.90,WNW,292,6.3,-999.0,84,-99.99,,,0.00,Acu-Link.com,2013-12-05 14:13:00,
2013-12-05 09:28:00,39.0,34.6,29.90,WNW,292,6.8,-999.0,84,-99.99,,,0.00,Acu-Link.com,2013-12-05 14:28:00,
2013-12-05 09:43:00,39.0,34.9,29.92,NNW,337,7.3,-999.0,85,-99.99,,,0.00,Acu-Link.com,2013-12-05 14:43:00,
2013-12-05 09:58:00,37.4,33.0,29.93,NW,315,8.9,-999.0,84,-99.99,,,0.00,Acu-Link.com,2013-12-05 14:58:00,
2013-12-05 10:13:00,36.5,32.7,29.93,West,270,4.7,-999.0,86,-99.99,,,0.00,Acu-Link.com,2013-12-05 15:13:00,
2013-12-05 10:28:00,36.1,32.3,29.93,NW,315,5.8,-999.0,86,-99.99,,,0.00,Acu-Link.com,2013-12-05 15:28:00,
2013-12-05 10:44:00,36.1,32.6,29.95,WNW,292,6.3,-999.0,87,-99.99,,,0.00,Acu-Link.com,2013-12-05 15:44:00,
2013-12-05 10:59:00,36.1,32.3,29.96,NW,315,6.3,-999.0,86,-99.99,,,0.00,Acu-Link.com,2013-12-05 15:59:00,
2013-12-05 11:14:00,35.8,31.7,29.96,NW,315,5.8,-999.0,85,-99.99,,,0.00,Acu-Link.com,2013-12-05 16:14:00,
2013-12-05 11:29:00,36.1,31.4,29.97,WNW,292,8.3,-999.0,83,-99.99,,,0.00,Acu-Link.com,2013-12-05 16:29:00,
2013-12-05 11:44:00,35.6,31.3,29.97,NNW,337,11.4,-999.0,84,-99.99,,,0.00,Acu-Link.com,2013-12-05 16:44:00,
2013-12-05 11:59:00,35.2,30.9,29.97,WNW,292,6.8,-999.0,84,-99.99,,,0.00,Acu-Link.com,2013-12-05 16:59:00,
2013-12-05 12:15:00,34.9,30.6,29.99,WNW,292,5.8,-999.0,84,-99.99,,,0.00,Acu-Link.com,2013-12-05 17:15:00,
2013-12-05 12:30:00,34.2,30.7,29.98,NW,315,8.9,-999.0,87,-99.99,,,0.00,Acu-Link.com,2013-12-05 17:30:00,
2013-12-05 12:46:00,33.8,30.9,29.96,NW,315,4.2,-999.0,89,-99.99,,,0.00,Acu-Link.com,2013-12-05 17:46:00,
2013-12-05 13:01:00,34.0,31.1,29.97,NNW,337,5.8,-999.0,89,-99.99,,,0.00,Acu-Link.com,2013-12-05 18:01:00,
2013-12-05 13:16:00,34.2,30.7,29.97,West,270,5.3,-999.0,87,-99.99,,,0.00,Acu-Link.com,2013-12-05 18:16:00,
2013-12-05 13:32:00,34.0,30.3,29.97,WNW,292,5.3,-999.0,86,-99.99,,,0.00,Acu-Link.com,2013-12-05 18:32:00,
2013-12-05 13:47:00,34.0,30.5,29.96,NNW,337,5.8,-999.0,87,-99.99,,,0.00,Acu-Link.com,2013-12-05 18:47:00,
2013-12-05 14:18:00,34.2,30.5,29.98,WNW,292,6.8,-999.0,86,-99.99,,,0.00,Acu-Link.com,2013-12-05 19:18:00,
2013-12-05 14:33:00,33.4,30.0,29.97,WNW,292,2.7,-999.0,87,-99.99,,,0.00,Acu-Link.com,2013-12-05 19:33:00,
2013-12-05 14:48:00,33.3,29.9,29.98,NNW,337,4.7,-999.0,87,-99.99,,,0.00,Acu-Link.com,2013-12-05 19:48:00,
2013-12-05 15:03:00,32.9,29.5,30.00,WNW,292,6.8,-999.0,87,-99.99,,,0.00,Acu-Link.com,2013-12-05 20:03:00,
2013-12-05 15:18:00,32.5,29.6,29.98,NNW,337,6.8,-999.0,89,-99.99,,,0.01,Acu-Link.com,2013-12-05 20:18:00,
2013-12-05 15:33:00,32.5,29.6,30.00,WNW,292,4.2,-999.0,89,-99.99,,,0.02,Acu-Link.com,2013-12-05 20:33:00,
2013-12-05 15:48:00,32.0,29.7,30.00,WNW,292,5.8,-999.0,91,-99.99,,,0.02,Acu-Link.com,2013-12-05 20:48:00,
2013-12-05 16:04:00,31.8,29.7,30.03,NW,315,3.7,-999.0,92,-99.99,,,0.03,Acu-Link.com,2013-12-05 21:04:00,
2013-12-05 16:19:00,31.5,29.7,30.02,NNW,337,4.2,-999.0,93,-99.99,,,0.03,Acu-Link.com,2013-12-05 21:19:00,
2013-12-05 16:34:00,31.1,29.3,30.03,NW,315,2.7,-999.0,93,-99.99,,,0.03,Acu-Link.com,2013-12-05 21:34:00,
2013-12-05 16:49:00,30.9,28.3,30.03,WNW,292,4.7,-999.0,90,-99.99,,,0.03,Acu-Link.com,2013-12-05 21:49:00,
2013-12-05 17:04:00,30.2,28.4,30.04,West,270,4.7,-999.0,93,-99.99,,,0.03,Acu-Link.com,2013-12-05 22:04:00,
2013-12-05 17:19:00,29.8,28.0,30.03,NW,315,6.3,-999.0,93,-99.99,,,0.03,Acu-Link.com,2013-12-05 22:19:00,
2013-12-05 17:34:00,30.0,28.5,30.01,NNE,22,3.7,-999.0,94,-99.99,,,0.03,Acu-Link.com,2013-12-05 22:34:00,
2013-12-05 17:50:00,30.2,28.9,30.00,NNE,22,3.7,-999.0,95,-99.99,,,0.03,Acu-Link.com,2013-12-05 22:50:00,
2013-12-05 18:05:00,30.0,28.7,30.00,North,0,3.2,-999.0,95,-99.99,,,0.03,Acu-Link.com,2013-12-05 23:05:00,
2013-12-05 18:20:00,29.8,28.3,29.99,North,0,4.7,-999.0,94,-99.99,,,0.03,Acu-Link.com,2013-12-05 23:20:00,
2013-12-05 18:35:00,29.8,28.5,30.01,NW,315,6.3,-999.0,95,-99.99,,,0.03,Acu-Link.com,2013-12-05 23:35:00,
2013-12-05 18:50:00,29.7,28.2,30.03,NNW,337,4.7,-999.0,94,-99.99,,,0.03,Acu-Link.com,2013-12-05 23:50:00,
2013-12-05 19:05:00,28.8,26.8,30.04,NNW,337,6.8,-999.0,92,-99.99,,,0.03,Acu-Link.com,2013-12-06 00:05:00,
2013-12-05 19:21:00,28.4,25.6,30.03,NNW,337,5.8,-999.0,89,-99.99,,,0.03,Acu-Link.com,2013-12-06 00:21:00,
2013-12-05 19:36:00,28.4,25.8,30.07,North,0,5.8,-999.0,90,-99.99,,,0.03,Acu-Link.com,2013-12-06 00:36:00,
2013-12-05 19:51:00,28.2,25.4,30.07,NW,315,6.8,-999.0,89,-99.99,,,0.03,Acu-Link.com,2013-12-06 00:51:00,
2013-12-05 20:06:00,27.9,24.5,30.08,NNW,337,9.4,-999.0,87,-99.99,,,0.03,Acu-Link.com,2013-12-06 01:06:00,
2013-12-05 20:21:00,27.3,24.5,30.11,NNW,337,7.3,-999.0,89,-99.99,,,0.03,Acu-Link.com,2013-12-06 01:21:00,
2013-12-05 20:36:00,27.1,24.3,30.11,NW,315,3.7,-999.0,89,-99.99,,,0.03,Acu-Link.com,2013-12-06 01:36:00,
2013-12-05 20:51:00,26.8,24.5,30.08,NW,315,2.7,-999.0,91,-99.99,,,0.03,Acu-Link.com,2013-12-06 01:51:00,
2013-12-05 21:06:00,26.8,24.8,30.09,NNW,337,3.2,-999.0,92,-99.99,,,0.03,Acu-Link.com,2013-12-06 02:06:00,
2013-12-05 21:22:00,26.4,23.9,30.08,NW,315,5.8,-999.0,90,-99.99,,,0.03,Acu-Link.com,2013-12-06 02:22:00,
2013-12-05 21:37:00,26.1,24.1,30.10,NNW,337,3.7,-999.0,92,-99.99,,,0.03,Acu-Link.com,2013-12-06 02:37:00,
2013-12-05 21:52:00,25.9,23.9,30.11,NW,315,3.7,-999.0,92,-99.99,,,0.03,Acu-Link.com,2013-12-06 02:52:00,
2013-12-05 22:07:00,25.5,24.3,30.10,NNW,337,3.7,-999.0,95,-99.99,,,0.03,Acu-Link.com,2013-12-06 03:07:00,
2013-12-05 22:22:00,25.5,24.3,30.11,NNE,22,3.2,-999.0,95,-99.99,,,0.03,Acu-Link.com,2013-12-06 03:22:00,
2013-12-05 22:38:00,25.0,23.8,30.11,NNW,337,6.3,-999.0,95,-99.99,,,0.03,Acu-Link.com,2013-12-06 03:38:00,
2013-12-05 22:53:00,25.0,23.8,30.12,NW,315,3.2,-999.0,95,-99.99,,,0.03,Acu-Link.com,2013-12-06 03:53:00,
2013-12-05 23:08:00,24.3,22.8,30.13,NW,315,4.2,-999.0,94,-99.99,,,0.03,Acu-Link.com,2013-12-06 04:08:00,
2013-12-05 23:23:00,24.1,22.9,30.12,NNW,337,4.2,-999.0,95,-99.99,,,0.03,Acu-Link.com,2013-12-06 04:23:00,
2013-12-05 23:39:00,24.1,22.9,30.11,NW,315,4.7,-999.0,95,-99.99,,,0.03,Acu-Link.com,2013-12-06 04:39:00,
2013-12-05 23:54:00,23.9,22.7,30.14,NW,315,4.2,-999.0,95,-99.99,,,0.03,Acu-Link.com,2013-12-06 04:54:00,